Location: Weatherford
(35.5260°N, 98.7070°W)
Time: 08:59:29
(UTC-06:00)

Amateur Radio Satellites - All Passes

Search period start: 24 November 2014 08:29
Search period end: 25 November 2014 08:29
Location: Weatherford, 35.5260°N, 98.7070°W

Satellite Date Start Highest point End Downlink Frequencies (MHz)
Time Altitude Azimuth
DOVE 4 24 Nov 08:52:31 08:53:58 12° 93° (E) 08:55:26 437.250
CUTE 1.7 & AOD 2 24 Nov 08:54:58 08:58:39 28° 96° (E) 09:02:20 437.475
UKube-1 24 Nov 09:14:20 09:15:47 11° 92° (E) 09:17:14 .
GOMX 1 24 Nov 09:23:15 09:27:09 38° 99° (E) 09:31:08 467.674
Oscar 11 24 Nov 09:25:36 09:28:45 19° 95° (E) 09:31:54 145.826/435.025
GONETS M04 24 Nov 09:27:00 09:35:42 66° 279° (W) 09:44:31
SEEDS 24 Nov 09:30:07 09:34:22 64° 101° (E) 09:38:36 437.485
CUBEBUG 2 24 Nov 09:30:22 09:32:00 12° 93° (E) 09:33:39 437.445
POLYITAN 1 24 Nov 09:34:14 09:35:50 12° 66° (ENE) 09:37:27 437.675
UWE-3 24 Nov 09:34:57 09:36:23 11° 93° (E) 09:37:49 435.000/436.395/437.385
QB50P2 24 Nov 09:36:43 09:38:38 13° 66° (ENE) 09:40:34 145.880/145.840
CINEMA 3 24 Nov 09:41:13 09:44:49 27° 97° (E) 09:48:31 145.822/145.860
BRITE-PL 24 Nov 09:41:44 09:45:53 85° 283° (WNW) 09:50:05 437.365/2234.400
DUCHIFAT 1 24 Nov 09:43:28 09:45:56 15° 67° (ENE) 09:48:24 145.980
DX 1 24 Nov 09:45:51 09:49:39 29° 97° (E) 09:53:24 434.975-435.025
TIGRISAT 24 Nov 09:47:48 09:51:15 24° 70° (ENE) 09:54:42 435.000
AAUSAT CUBESAT 2 24 Nov 09:50:57 09:55:12 85° 102° (ESE) 09:59:26 437.432
HO-68 24 Nov 09:51:20 09:58:32 82° 287° (WNW) 10:05:41 435.675
CANX-2 24 Nov 09:55:29 09:59:37 48° 286° (WNW) 10:03:45 2200.000
UNISAT 6 24 Nov 09:59:52 10:03:44 34° 72° (ENE) 10:07:37 437.425
NANOSAT C BR1 24 Nov 10:01:25 10:04:53 25° 70° (ENE) 10:08:20 145.865
COMPASS 1 24 Nov 10:04:58 10:09:07 56° 285° (WNW) 10:13:17 437.405
DELFI C3 24 Nov 10:06:09 10:10:11 49° 100° (E) 10:14:11 145.870
VELOX 1 24 Nov 10:08:06 10:10:39 15° 94° (E) 10:13:12 145.980
QB50P1 24 Nov 10:10:41 10:14:27 31° 72° (ENE) 10:18:13 145.935-145.965
HUMSAT D 24 Nov 10:11:19 10:13:50 15° 94° (E) 10:16:21 437.325/437.525
ZACube-1 24 Nov 10:12:29 10:16:09 28° 97° (E) 10:19:52 437.345
50 SAT 24 Nov 10:13:42 10:15:35 13° 93° (E) 10:17:27 437.505
ANTELSAT 24 Nov 10:27:56 10:32:12 77° 76° (ENE) 10:36:29 437.575/2403.000
DOVE 4 24 Nov 10:27:58 10:31:57 45° 286° (WNW) 10:36:02 437.250
BUGSAT 1 24 Nov 10:31:05 10:35:09 45° 74° (ENE) 10:39:13 437.445
CUTE 1.7 & AOD 2 24 Nov 10:31:10 10:34:24 21° 290° (WNW) 10:37:38 437.475
AISAT 24 Nov 10:32:02 10:35:54 29° 97° (E) 10:39:45 437.250
POPSAT HIP 1 24 Nov 10:34:42 10:38:55 62° 75° (ENE) 10:43:08 437.405
FUNcube-1 24 Nov 10:47:38 10:51:52 76° 102° (ESE) 10:56:10 145.935
UKube-1 24 Nov 10:48:00 10:52:13 50° 286° (WNW) 10:56:23 .
CUBEBUG 1 24 Nov 10:53:00 10:55:48 17° 94° (E) 10:58:36 437.445
Oscar 11 24 Nov 11:01:07 11:04:55 30° 289° (WNW) 11:08:43 145.826/435.025
GOMX 1 24 Nov 11:02:47 11:04:59 14° 292° (WNW) 11:07:12 467.674
CUBEBUG 2 24 Nov 11:04:51 11:08:54 47° 286° (WNW) 11:13:04 437.445
POLYITAN 1 24 Nov 11:07:10 11:11:20 51° 260° (W) 11:15:29 437.675
UWE-3 24 Nov 11:09:04 11:13:09 48° 286° (WNW) 11:17:19 435.000/436.395/437.385
QB50P2 24 Nov 11:10:01 11:14:08 47° 260° (W) 11:18:15 145.880/145.840
DUCHIFAT 1 24 Nov 11:17:28 11:21:28 39° 261° (W) 11:25:28 145.980
CINEMA 3 24 Nov 11:18:44 11:21:53 21° 290° (WNW) 11:25:06 145.822/145.860
DX 1 24 Nov 11:22:27 11:25:41 21° 292° (WNW) 11:28:55 434.975-435.025
TIGRISAT 24 Nov 11:24:32 11:27:56 23° 264° (W) 11:31:19 435.000
GONETS M04 24 Nov 11:33:19 11:34:20 10° 299° (WNW) 11:35:20
ESTCUBE 1 24 Nov 11:34:51 11:39:20 56° 100° (E) 11:43:45 437.505/2401.250
NANOSAT C BR1 24 Nov 11:37:15 11:40:40 23° 264° (W) 11:44:05 145.865
UNISAT 6 24 Nov 11:37:56 11:40:38 16° 266° (W) 11:43:19 437.425
HO-68 24 Nov 11:41:49 11:45:08 14° 304° (NW) 11:48:26 435.675
VELOX 1 24 Nov 11:43:15 11:47:24 40° 288° (WNW) 11:51:30 145.980
DELFI C3 24 Nov 11:43:36 11:45:01 12° 294° (WNW) 11:46:26 145.870
HUMSAT D 24 Nov 11:45:56 11:49:44 35° 287° (WNW) 11:53:33 437.325/437.525
50 SAT 24 Nov 11:47:15 11:51:03 39° 287° (WNW) 11:54:51 437.505
QB50P1 24 Nov 11:47:26 11:50:22 18° 265° (W) 11:53:19 145.935-145.965
ZACube-1 24 Nov 11:49:13 11:52:21 20° 290° (WNW) 11:55:31 437.345
BUGSAT 1 24 Nov 12:09:00 12:10:50 13° 267° (W) 12:12:41 437.445
AISAT 24 Nov 12:09:01 12:12:20 21° 292° (WNW) 12:15:39 437.250
TISAT 1 24 Nov 12:19:32 12:23:30 40° 99° (E) 12:27:26 437.305
SPROUT 24 Nov 12:23:32 12:27:33 39° 98° (E) 12:31:32 437.525
CUBEBUG 1 24 Nov 12:28:18 12:32:16 35° 288° (WNW) 12:36:12 437.445
M-CUBED/EXP-1 PRIME 24 Nov 12:36:00 12:37:46 12° 95° (E) 12:39:31 437.505
SO-50 24 Nov 12:36:27 12:40:10 21° 49° (NE) 12:43:52 436.795
Oscar 19 24 Nov 12:57:12 13:02:05 48° 72° (ENE) 13:06:59 437.125/150
CUSAT 1 24 Nov 12:57:46 12:59:51 18° 95° (E) 13:01:47 437.405
BEESAT 24 Nov 12:59:27 13:02:15 15° 93° (E) 13:05:03 436.000
ESTCUBE 1 24 Nov 13:13:47 13:15:41 13° 295° (WNW) 13:17:34 437.505/2401.250
DANDE 24 Nov 13:15:08 13:17:49 27° 97° (E) 13:20:11 436.750
ITAMSAT 1 24 Nov 13:46:04 13:51:09 55° 73° (ENE) 13:56:15 435.822/435.867
YUBILEINY 24 Nov 13:51:18 13:59:41 49° 78° (ENE) 14:07:59 435.215
ITUPSAT 1 24 Nov 13:52:26 13:57:11 58° 101° (E) 14:01:53 437.325
KKS-1 24 Nov 13:56:11 13:57:18 11° 92° (E) 13:58:24 437.445
TISAT 1 24 Nov 13:56:40 13:58:58 15° 293° (WNW) 14:01:16 437.305
SPROUT 24 Nov 14:00:48 14:03:17 15° 293° (WNW) 14:05:46 437.525
SWISSCUBE 24 Nov 14:04:03 14:08:52 87° 103° (ESE) 14:13:39 437.505
AUBIESAT-1 24 Nov 14:04:16 14:09:12 82° 288° (WNW) 14:14:00 437.475
HORYU 2 24 Nov 14:06:24 14:09:20 18° 67° (ENE) 14:12:18 437.375
PHONESAT 2.4 24 Nov 14:06:50 14:08:16 12° 141° (SE) 14:09:43 2401.200-2431.200
Gurwin Techsat 1B 24 Nov 14:07:59 14:13:05 50° 72° (ENE) 14:18:12 435.225
M-CUBED/EXP-1 PRIME 24 Nov 14:08:15 14:13:11 68° 289° (WNW) 14:17:58 437.505
SO-50 24 Nov 14:16:15 14:20:55 45° 245° (WSW) 14:25:34 436.795
VERMONT LUNAR 24 Nov 14:23:27 14:26:22 23° 146° (SE) 14:29:18 437.305
AO-7 24 Nov 14:28:41 14:34:53 24° 58° (ENE) 14:41:05 29.400- 29.500
BEESAT 24 Nov 14:35:43 14:40:18 46° 287° (WNW) 14:44:51 436.000
Oscar 19 24 Nov 14:38:25 14:41:38 17° 267° (W) 14:44:52 437.125/150
STARS 24 Nov 14:53:05 14:57:06 34° 98° (E) 15:01:05 437.465
MaSat-1 24 Nov 15:13:32 15:16:16 27° 110° (ESE) 15:18:47 437.345
ITAMSAT 1 24 Nov 15:28:00 15:30:55 15° 267° (W) 15:33:51 435.822/435.867
KKS-1 24 Nov 15:29:54 15:34:14 56° 286° (WNW) 15:38:34 437.445
ITUPSAT 1 24 Nov 15:32:15 15:34:32 13° 296° (WNW) 15:36:48 437.325
O/OREOS (USA 219) 24 Nov 15:36:43 15:39:17 15° 59° (ENE) 15:41:52 437.305
JAS-2 24 Nov 15:40:13 15:45:38 22° 61° (ENE) 15:51:11 435.910
HORYU 2 24 Nov 15:41:39 15:45:43 36° 262° (W) 15:49:49 437.375
PHONESAT 2.4 24 Nov 15:42:55 15:46:36 64° 154° (SSE) 15:50:17 2401.200-2431.200
YUBILEINY 24 Nov 15:48:45 15:56:02 31° 275° (W) 16:03:19 435.215
Gurwin Techsat 1B 24 Nov 15:49:51 15:53:16 17° 267° (W) 15:56:42 435.225
VERMONT LUNAR 24 Nov 16:01:01 16:04:38 74° 340° (NNW) 16:08:16 437.305
AO-7 24 Nov 16:18:38 16:26:52 71° 255° (WSW) 16:35:11 29.400- 29.500
RS-15 24 Nov 16:22:06 16:32:57 66° 113° (ESE) 16:43:41 29.354- 29.394
MOZHAYETS 4 24 Nov 16:24:23 16:26:27 13° 92° (E) 16:28:31
STARS 24 Nov 16:30:19 16:33:18 18° 292° (WNW) 16:36:17 437.465
CUTE-I 24 Nov 16:56:00 16:59:24 17° 64° (ENE) 17:02:47 437.470
O/OREOS (USA 219) 24 Nov 17:14:39 17:18:55 45° 254° (WSW) 17:23:11 437.305
PHONESAT 2.4 24 Nov 17:21:58 17:25:31 43° 350° (N) 17:29:06 2401.200-2431.200
JAS-2 24 Nov 17:22:17 17:29:44 76° 258° (WSW) 17:37:38 435.910
VERMONT LUNAR 24 Nov 17:40:02 17:43:25 36° 357° (N) 17:46:49 437.305
Cubesat XI-IV 24 Nov 17:51:48 17:57:05 61° 73° (ENE) 18:02:22 437.490
MOZHAYETS 4 24 Nov 17:59:25 18:03:57 52° 286° (WNW) 18:08:27
PRISM 24 Nov 18:09:43 18:13:31 32° 98° (E) 18:17:17 437.425
CUTE-I 24 Nov 18:33:44 18:38:59 55° 259° (W) 18:44:14 437.470
RS-15 24 Nov 18:36:18 18:45:58 35° 315° (NW) 18:55:42 29.354- 29.394
PCSat 24 Nov 18:52:50 18:55:24 14° 103° (ESE) 18:57:58 145.827
PHONESAT 2.4 24 Nov 19:01:14 19:04:46 40° 7° (N) 19:08:17 2401.200-2431.200
AIST 1 24 Nov 19:05:18 19:06:41 11° 85° (E) 19:08:04
JAS-2 24 Nov 19:13:31 19:15:50 12° 274° (W) 19:18:10 435.910
VERMONT LUNAR 24 Nov 19:18:46 19:22:19 50° 14° (NNE) 19:25:51 437.305
STRAND 1 24 Nov 19:30:29 19:35:37 86° 103° (ESE) 19:40:42 437.568
Cubesat XI-IV 24 Nov 19:34:42 19:37:31 14° 268° (W) 19:40:20 437.490
BEESAT 3 24 Nov 19:36:20 19:38:12 13° 108° (ESE) 19:40:05 437.485
CUBESAT XI-V 24 Nov 19:36:21 19:41:01 71° 284° (WNW) 19:45:37 437.345
GONETS M04 24 Nov 19:41:07 19:49:45 55° 79° (E) 19:58:16
PRISM 24 Nov 19:45:54 19:48:49 18° 292° (WNW) 19:51:42 437.425
CUTE 1.7 & AOD 2 24 Nov 19:46:45 19:49:02 14° 67° (ENE) 19:51:19 437.475
BEESAT 2 24 Nov 19:49:39 19:52:19 17° 109° (ESE) 19:55:01 435.950
DOVE 4 24 Nov 19:57:14 19:57:54 10° 66° (ENE) 19:58:34 437.250
HO-68 24 Nov 20:16:11 20:23:08 56° 70° (ENE) 20:30:08 435.675
AIST 2 24 Nov 20:17:31 20:20:13 17° 109° (ESE) 20:22:58 435.215
Oscar 11 24 Nov 20:19:51 20:21:04 11° 65° (ENE) 20:22:17 145.826/435.025
SEEDS 24 Nov 20:20:06 20:23:45 30° 72° (ENE) 20:27:26 437.485
GOMX 1 24 Nov 20:28:33 20:32:55 34° 73° (ENE) 20:37:02 467.674
PCSat 24 Nov 20:32:48 20:38:09 67° 298° (WNW) 20:43:34 145.827
DX 1 24 Nov 20:39:31 20:42:34 19° 68° (ENE) 20:45:38 434.975-435.025
AIST 1 24 Nov 20:39:35 20:43:49 49° 279° (W) 20:48:07
AAUSAT CUBESAT 2 24 Nov 20:39:40 20:43:30 37° 73° (ENE) 20:47:22 437.432
PHONESAT 2.4 24 Nov 20:40:03 20:43:46 81° 204° (SSW) 20:47:28 2401.200-2431.200
CINEMA 3 24 Nov 20:41:14 20:44:21 19° 69° (ENE) 20:47:24 145.822/145.860
CANX-2 24 Nov 20:45:28 20:49:40 81° 77° (ENE) 20:53:54 2200.000
BRITE-PL 24 Nov 20:49:00 20:54:11 81° 77° (ENE) 20:58:58 437.365/2234.400
DELFI C3 24 Nov 20:52:56 20:56:03 22° 70° (ENE) 20:59:10 145.870
COMPASS 1 24 Nov 20:53:38 20:57:45 66° 76° (ENE) 21:01:54 437.405
VERMONT LUNAR 24 Nov 20:57:20 21:00:48 43° 209° (SSW) 21:04:14 437.305
RS-15 24 Nov 20:58:46 21:03:15 13° 349° (N) 21:07:47 29.354- 29.394
VELOX 1 24 Nov 21:05:29 21:06:18 10° 64° (ENE) 21:07:07 145.980
ZACube-1 24 Nov 21:07:12 21:09:49 16° 68° (ENE) 21:12:25 437.345
BEESAT 3 24 Nov 21:12:03 21:15:59 45° 303° (WNW) 21:19:59 437.485
STRAND 1 24 Nov 21:13:52 21:14:01 10° 299° (WNW) 21:14:10 437.568
CUTE 1.7 & AOD 2 24 Nov 21:20:38 21:24:35 40° 262° (W) 21:28:35 437.475
BEESAT 2 24 Nov 21:26:30 21:30:17 35° 305° (NW) 21:34:09 435.950
AISAT 24 Nov 21:28:10 21:31:25 20° 68° (ENE) 21:34:41 437.250
DOVE 4 24 Nov 21:30:29 21:35:12 67° 259° (W) 21:39:38 437.250
GONETS M04 24 Nov 21:38:53 21:45:58 28° 276° (W) 21:53:01
UKube-1 24 Nov 21:39:55 21:44:17 88° 256° (WSW) 21:48:40 .
FUNcube-1 24 Nov 21:41:08 21:45:05 40° 73° (ENE) 21:49:00 145.935
CUBEBUG 1 24 Nov 21:48:38 21:49:46 11° 64° (ENE) 21:50:53 437.445
Oscar 11 24 Nov 21:52:30 21:56:42 56° 260° (W) 22:00:57 145.826/435.025
AIST 2 24 Nov 21:54:35 21:58:31 38° 304° (NW) 22:02:31 435.215
SEEDS 24 Nov 21:56:44 21:59:36 18° 266° (W) 22:02:30 437.485
CUBEBUG 2 24 Nov 22:00:16 22:04:36 83° 258° (WSW) 22:08:50 437.445
UWE-3 24 Nov 22:03:25 22:07:42 88° 258° (WSW) 22:11:55 435.000/436.395/437.385
HO-68 24 Nov 22:05:33 22:11:07 24° 265° (W) 22:16:44 435.675
GOMX 1 24 Nov 22:07:23 22:11:02 21° 264° (W) 22:14:31 467.674
DX 1 24 Nov 22:14:35 22:18:33 33° 262° (W) 22:22:32 434.975-435.025
AAUSAT CUBESAT 2 24 Nov 22:17:06 22:19:19 14° 267° (W) 22:21:33 437.432
CINEMA 3 24 Nov 22:17:22 22:21:22 31° 262° (W) 22:25:14 145.822/145.860
PHONESAT 2.4 24 Nov 22:19:53 22:22:11 16° 217° (SW) 22:24:29 2401.200-2431.200
ANTELSAT 24 Nov 22:23:49 22:27:09 20° 95° (E) 22:30:31 437.575/2403.000
POPSAT HIP 1 24 Nov 22:25:22 22:27:13 13° 93° (E) 22:29:04 437.405
DELFI C3 24 Nov 22:27:54 22:31:13 24° 264° (W) 22:34:33 145.870
ESTCUBE 1 24 Nov 22:31:54 22:36:03 36° 72° (ENE) 22:40:13 437.505/2401.250
50 SAT 24 Nov 22:32:57 22:37:00 85° 78° (ENE) 22:41:03 437.505
HUMSAT D 24 Nov 22:35:01 22:39:09 74° 258° (WSW) 22:43:17 437.325/437.525
VELOX 1 24 Nov 22:37:51 22:42:17 66° 258° (WSW) 22:46:45 145.980
ZACube-1 24 Nov 22:42:02 22:45:55 35° 262° (W) 22:49:46 437.345
POLYITAN 1 24 Nov 22:56:25 23:00:11 31° 98° (E) 23:03:57 437.675
QB50P2 24 Nov 22:58:57 23:02:47 33° 98° (E) 23:06:37 145.880/145.840
AISAT 24 Nov 23:03:48 23:07:49 32° 262° (W) 23:11:51 437.250
DUCHIFAT 1 24 Nov 23:05:47 23:09:45 39° 99° (E) 23:13:41 145.980
TISAT 1 24 Nov 23:10:02 23:13:19 22° 69° (ENE) 23:16:35 437.305
RS-15 24 Nov 23:15:17 23:22:27 18° 28° (NNE) 23:29:45 29.354- 29.394
SPROUT 24 Nov 23:15:40 23:18:58 22° 69° (ENE) 23:22:17 437.525
ISS 24 Nov 23:17:58 23:20:54 30° 132° (SE) 23:23:51 145.825
TIGRISAT 24 Nov 23:18:03 23:22:29 86° 102° (ESE) 23:27:02 435.000
FUNcube-1 24 Nov 23:19:27 23:21:35 14° 267° (W) 23:23:43 145.935
CUBEBUG 1 24 Nov 23:21:10 23:25:34 63° 259° (W) 23:29:59 437.445
NANOSAT C BR1 24 Nov 23:24:48 23:29:00 70° 101° (ESE) 23:33:12 145.865
UNISAT 6 24 Nov 23:31:00 23:35:25 66° 284° (WNW) 23:39:55 437.425
QB50P1 24 Nov 23:34:29 23:38:44 88° 281° (W) 23:42:56 145.935-145.965
CUSAT 1 24 Nov 23:36:40 23:40:32 23° 79° (E) 23:45:16 437.405
BUGSAT 1 24 Nov 23:52:10 23:56:13 64° 284° (WNW) 00:00:12 437.445
DANDE 24 Nov 23:56:26 00:00:29 29° 80° (E) 00:05:41 436.750
POPSAT HIP 1 24 Nov 23:59:19 00:03:19 43° 287° (WNW) 00:07:18 437.405
ANTELSAT 25 Nov 00:00:01 00:03:56 31° 288° (WNW) 00:07:56 437.575/2403.000
BEESAT 25 Nov 00:04:11 00:06:32 14° 64° (ENE) 00:08:53 436.000
JUGNU 25 Nov 00:09:35 00:12:12 13° 169° (SSE) 00:14:49 437.505
ESTCUBE 1 25 Nov 00:09:55 00:13:00 18° 266° (W) 00:16:07 437.505/2401.250
POLYITAN 1 25 Nov 00:32:59 00:35:54 18° 292° (WNW) 00:38:49 437.675
QB50P2 25 Nov 00:35:39 00:38:26 17° 292° (WNW) 00:41:12 145.880/145.840
DUCHIFAT 1 25 Nov 00:42:56 00:45:16 15° 293° (WNW) 00:47:36 145.980
TISAT 1 25 Nov 00:45:22 00:48:59 27° 263° (W) 00:52:37 437.305
AUBIESAT-1 25 Nov 00:51:09 00:55:04 83° 72° (ENE) 00:59:24 437.475
SPROUT 25 Nov 00:51:12 00:54:53 27° 263° (W) 00:58:35 437.525
ISS 25 Nov 00:54:51 00:57:34 23° 327° (NNW) 01:00:17 145.825
MaSat-1 25 Nov 00:55:25 00:56:55 15° 62° (ENE) 00:58:26 437.345
M-CUBED/EXP-1 PRIME 25 Nov 00:55:32 00:59:26 79° 254° (WSW) 01:03:45 437.505
ITUPSAT 1 25 Nov 00:56:26 01:01:02 48° 73° (ENE) 01:05:40 437.325
SWISSCUBE 25 Nov 01:07:41 01:12:28 71° 75° (ENE) 01:17:16 437.505
Oscar 19 25 Nov 01:12:29 01:16:25 22° 95° (E) 01:20:21 437.125/150
CUSAT 1 25 Nov 01:19:04 01:23:32 36° 264° (W) 01:29:19 437.405
RS-15 25 Nov 01:26:46 01:37:52 59° 55° (NE) 01:49:25 29.354- 29.394
BEESAT 25 Nov 01:39:09 01:43:51 57° 259° (W) 01:48:35 436.000
DANDE 25 Nov 01:39:52 01:43:53 27° 264° (W) 01:48:55 436.750
STARS 25 Nov 01:48:08 01:51:31 22° 69° (ENE) 01:54:54 437.465
JUGNU 25 Nov 01:56:43 02:00:28 17° 179° (S) 02:04:12 437.505
ITAMSAT 1 25 Nov 02:02:39 02:06:52 25° 96° (E) 02:11:03 435.822/435.867
SRMSAT 25 Nov 02:05:37 02:08:52 15° 171° (S) 02:12:06 437.500
KKS-1 25 Nov 02:25:00 02:29:28 90° 50° (NE) 02:33:57 437.445
Gurwin Techsat 1B 25 Nov 02:27:47 02:32:08 25° 96° (E) 02:36:28 435.225
ITUPSAT 1 25 Nov 02:36:25 02:39:09 15° 267° (W) 02:41:53 437.325
YUBILEINY 25 Nov 02:47:50 02:56:28 63° 92° (E) 03:05:06 435.215
Oscar 19 25 Nov 02:51:04 02:55:49 38° 289° (WNW) 03:00:33 437.125/150
SO-50 25 Nov 02:51:54 02:52:31 10° 106° (ESE) 02:53:09 436.795
STARS 25 Nov 03:24:02 03:27:50 28° 263° (W) 03:31:38 437.465
HORYU 2 25 Nov 03:35:53 03:40:17 53° 100° (E) 03:44:40 437.375
RS-15 25 Nov 03:39:48 03:49:43 37° 254° (WSW) 04:00:02 29.354- 29.394
ITAMSAT 1 25 Nov 03:41:44 03:46:20 33° 290° (WNW) 03:50:55 435.822/435.867
JUGNU 25 Nov 03:45:39 03:48:44 14° 189° (S) 03:51:51 437.505
SRMSAT 25 Nov 03:53:31 03:57:18 17° 182° (S) 04:01:05 437.500
Gurwin Techsat 1B 25 Nov 04:07:21 04:12:05 34° 290° (WNW) 04:16:49 435.225
AO-7 25 Nov 04:23:41 04:31:44 49° 102° (ESE) 04:39:44 29.400- 29.500
SO-50 25 Nov 04:27:57 04:32:23 66° 301° (WNW) 04:37:00 436.795
JAS-2 25 Nov 04:38:17 04:42:56 19° 89° (E) 04:47:14 435.910
YUBILEINY 25 Nov 04:46:55 04:53:48 25° 290° (WNW) 05:00:43 435.215
MOZHAYETS 4 25 Nov 04:58:12 05:02:46 80° 258° (WSW) 05:07:24
PRISM 25 Nov 04:58:49 05:01:34 17° 67° (ENE) 05:04:19 437.425
HORYU 2 25 Nov 05:14:27 05:16:28 13° 295° (WNW) 05:18:29 437.375
PCSat 25 Nov 05:23:46 05:29:03 51° 60° (ENE) 05:34:18 145.827
BEESAT 3 25 Nov 05:34:46 05:38:45 41° 57° (ENE) 05:42:40 437.485
SRMSAT 25 Nov 05:43:12 05:45:44 13° 192° (SSW) 05:48:15 437.500
O/OREOS (USA 219) 25 Nov 05:45:07 05:48:56 28° 103° (ESE) 05:52:45 437.305
BEESAT 2 25 Nov 05:49:15 05:53:23 54° 58° (ENE) 05:57:27 435.950
ISS 25 Nov 05:49:22 05:51:20 15° 28° (NNE) 05:53:18 145.825
Cubesat XI-IV 25 Nov 06:12:41 06:17:21 31° 97° (E) 06:21:59 437.490
AO-7 25 Nov 06:16:55 06:24:11 35° 298° (WNW) 06:31:28 29.400- 29.500
AIST 2 25 Nov 06:19:09 06:23:23 55° 58° (ENE) 06:27:33 435.215
JAS-2 25 Nov 06:21:39 06:28:35 61° 288° (WNW) 06:34:41 435.910
PRISM 25 Nov 06:33:01 06:36:49 33° 262° (W) 06:40:40 437.425
CUBESAT XI-V 25 Nov 06:36:34 06:41:16 79° 77° (ENE) 06:46:01 437.345
STRAND 1 25 Nov 06:43:16 06:48:25 90° 77° (ENE) 06:53:36 437.568
AIST 1 25 Nov 06:50:23 06:54:12 29° 77° (ENE) 06:57:59
CUTE-I 25 Nov 06:53:53 06:59:13 78° 103° (ESE) 07:04:31 437.470
PCSat 25 Nov 07:08:24 07:12:00 18° 255° (WSW) 07:15:36 145.827
BEESAT 3 25 Nov 07:14:15 07:16:35 15° 251° (WSW) 07:18:54 437.485
O/OREOS (USA 219) 25 Nov 07:24:42 07:28:16 23° 298° (WNW) 07:31:51 437.305
ISS 25 Nov 07:25:01 07:28:18 69° 224° (SW) 07:31:34 145.825
BEESAT 2 25 Nov 07:29:56 07:31:09 11° 253° (WSW) 07:32:22 435.950
Cubesat XI-IV 25 Nov 07:52:48 07:57:19 29° 292° (WNW) 08:01:49 437.490
AIST 2 25 Nov 08:00:08 08:01:29 11° 253° (WSW) 08:02:50 435.215
